Time,TemperatureF,DewpointF,PressureIn,WindDirection,WindDirectionDegrees,WindSpeedMPH,WindSpeedGustMPH,Humidity,HourlyPrecipIn,Conditions,Clouds,dailyrainin,SoftwareType,DateUTC
2013-04-20 00:03:00,45.7,40.2,29.92,North,0,0.0,0.2,81,0.00,,,0.00,WUHU216HW,2013-04-20 07:03:00,
2013-04-20 00:08:00,45.7,40.2,29.92,North,0,0.0,0.0,81,0.00,,,0.00,WUHU216HW,2013-04-20 07:08:00,
2013-04-20 00:28:00,47.2,40.7,29.93,SSW,203,4.0,4.0,78,0.00,,,0.00,WUHU216HW,2013-04-20 07:28:00,
2013-04-20 00:33:00,47.2,40.7,29.93,SSW,203,4.0,4.0,78,0.00,,,0.00,WUHU216HW,2013-04-20 07:33:00,
2013-04-20 00:58:00,47.9,39.6,29.93,NNE,23,0.7,0.7,73,0.00,,,0.00,WUHU216HW,2013-04-20 07:58:00,
2013-04-20 01:03:00,47.7,39.4,29.93,NNE,23,0.7,0.7,73,0.00,,,0.00,WUHU216HW,2013-04-20 08:03:00,
2013-04-20 01:08:00,47.7,39.4,29.93,NNE,23,0.7,0.7,73,0.00,,,0.00,WUHU216HW,2013-04-20 08:08:00,
2013-04-20 01:28:00,46.4,39.3,29.94,NW,315,0.9,0.9,76,0.00,,,0.00,WUHU216HW,2013-04-20 08:28:00,
2013-04-20 01:33:00,46.4,39.3,29.94,NW,315,0.9,0.9,76,0.00,,,0.00,WUHU216HW,2013-04-20 08:33:00,
2013-04-20 01:58:00,44.6,37.9,29.95,NNE,23,0.0,0.0,77,0.00,,,0.00,WUHU216HW,2013-04-20 08:58:00,
2013-04-20 02:03:00,44.6,37.9,29.95,NNE,23,0.0,0.0,77,0.00,,,0.00,WUHU216HW,2013-04-20 09:03:00,
2013-04-20 02:28:00,43.7,37.6,29.96,South,180,0.0,0.0,79,0.00,,,0.00,WUHU216HW,2013-04-20 09:28:00,
2013-04-20 02:33:00,43.7,37.6,29.96,South,180,0.0,0.0,79,0.00,,,0.00,WUHU216HW,2013-04-20 09:33:00,
2013-04-20 02:58:00,42.8,37.4,29.97,SW,225,0.0,0.0,81,0.00,,,0.00,WUHU216HW,2013-04-20 09:58:00,
2013-04-20 03:03:00,42.8,37.4,29.97,SW,225,0.0,0.0,81,0.00,,,0.00,WUHU216HW,2013-04-20 10:03:00,
2013-04-20 03:28:00,42.1,36.4,29.98,North,0,0.0,0.0,80,0.00,,,0.00,WUHU216HW,2013-04-20 10:28:00,
2013-04-20 03:33:00,42.1,36.4,29.98,North,0,0.0,0.0,80,0.00,,,0.00,WUHU216HW,2013-04-20 10:33:00,
2013-04-20 03:58:00,41.2,35.7,29.98,North,0,0.0,0.0,81,0.00,,,0.00,WUHU216HW,2013-04-20 10:58:00,
2013-04-20 04:03:00,41.2,35.7,29.98,North,0,0.0,0.0,81,0.00,,,0.00,WUHU216HW,2013-04-20 11:03:00,
2013-04-20 04:28:00,40.7,35.3,29.99,NNW,338,0.0,0.0,81,0.00,,,0.00,WUHU216HW,2013-04-20 11:28:00,
2013-04-20 04:33:00,40.7,35.3,29.99,NNW,338,0.0,0.0,81,0.00,,,0.00,WUHU216HW,2013-04-20 11:33:00,
2013-04-20 04:58:00,41.2,36.1,30.00,South,180,1.8,1.8,82,0.00,,,0.00,WUHU216HW,2013-04-20 11:58:00,
2013-04-20 05:03:00,41.2,36.1,30.00,South,180,1.8,1.8,82,0.00,,,0.00,WUHU216HW,2013-04-20 12:03:00,
2013-04-20 05:28:00,39.8,34.5,30.01,NNE,23,1.8,1.8,81,0.00,,,0.00,WUHU216HW,2013-04-20 12:28:00,
2013-04-20 05:33:00,39.8,34.5,30.01,NNE,23,1.8,1.8,81,0.00,,,0.00,WUHU216HW,2013-04-20 12:33:00,
2013-04-20 05:58:00,39.6,34.6,30.02,NE,45,0.0,0.0,82,0.00,,,0.00,WUHU216HW,2013-04-20 12:58:00,
2013-04-20 06:03:00,39.6,34.6,30.02,NE,45,0.0,0.0,82,0.00,,,0.00,WUHU216HW,2013-04-20 13:03:00,
2013-04-20 06:28:00,39.6,34.8,30.03,NE,45,0.0,0.0,83,0.00,,,0.00,WUHU216HW,2013-04-20 13:28:00,
2013-04-20 06:33:00,39.6,34.8,30.03,NE,45,0.0,0.0,83,0.00,,,0.00,WUHU216HW,2013-04-20 13:33:00,
2013-04-20 06:58:00,41.2,36.7,30.04,SW,225,0.4,0.4,84,0.00,,,0.00,WUHU216HW,2013-04-20 13:58:00,
2013-04-20 07:03:00,41.2,36.7,30.04,SW,225,0.4,0.4,84,0.00,,,0.00,WUHU216HW,2013-04-20 14:03:00,
2013-04-20 07:28:00,42.7,37.8,30.04,SW,225,3.4,3.4,83,0.00,,,0.00,WUHU216HW,2013-04-20 14:28:00,
2013-04-20 07:33:00,42.7,37.8,30.04,SW,225,3.4,3.4,83,0.00,,,0.00,WUHU216HW,2013-04-20 14:33:00,
2013-04-20 07:58:00,43.6,38.1,30.04,SSW,203,4.7,4.7,81,0.00,,,0.00,WUHU216HW,2013-04-20 14:58:00,
2013-04-20 08:03:00,43.7,38.3,30.04,SW,225,4.0,4.7,81,0.00,,,0.00,WUHU216HW,2013-04-20 15:03:00,
2013-04-20 08:08:00,43.7,38.3,30.04,SW,225,4.0,4.0,81,0.00,,,0.00,WUHU216HW,2013-04-20 15:08:00,
2013-04-20 08:28:00,44.6,38.2,30.05,SSW,203,4.7,4.7,78,0.00,,,0.00,WUHU216HW,2013-04-20 15:28:00,
2013-04-20 08:33:00,44.6,38.2,30.05,SSW,203,4.7,4.7,78,0.00,,,0.00,WUHU216HW,2013-04-20 15:33:00,
2013-04-20 08:58:00,45.5,38.8,30.05,SW,225,3.8,3.8,77,0.00,,,0.00,WUHU216HW,2013-04-20 15:58:00,
2013-04-20 09:03:00,45.5,38.8,30.05,SW,225,3.8,3.8,77,0.00,,,0.00,WUHU216HW,2013-04-20 16:03:00,
2013-04-20 09:08:00,45.5,38.8,30.05,SW,225,3.8,3.8,77,0.00,,,0.00,WUHU216HW,2013-04-20 16:08:00,
2013-04-20 09:28:00,47.5,39.6,30.05,SW,225,1.8,1.8,74,0.00,,,0.00,WUHU216HW,2013-04-20 16:28:00,
2013-04-20 09:33:00,47.5,39.6,30.05,SW,225,1.8,1.8,74,0.00,,,0.00,WUHU216HW,2013-04-20 16:33:00,
2013-04-20 09:58:00,49.1,39.4,30.05,SSE,158,3.4,3.4,69,0.00,,,0.00,WUHU216HW,2013-04-20 16:58:00,
2013-04-20 10:03:00,49.1,39.4,30.05,SSE,158,3.4,3.4,69,0.00,,,0.00,WUHU216HW,2013-04-20 17:03:00,
2013-04-20 10:28:00,50.6,40.4,30.05,South,180,4.0,4.0,68,0.00,,,0.00,WUHU216HW,2013-04-20 17:28:00,
2013-04-20 10:33:00,50.6,40.4,30.05,South,180,4.0,4.0,68,0.00,,,0.00,WUHU216HW,2013-04-20 17:33:00,
2013-04-20 10:58:00,54.7,41.1,30.05,SSW,203,8.1,8.1,60,0.00,,,0.00,WUHU216HW,2013-04-20 17:58:00,
2013-04-20 11:03:00,54.7,41.1,30.05,SSW,203,8.1,8.1,60,0.00,,,0.00,WUHU216HW,2013-04-20 18:03:00,
2013-04-20 11:28:00,57.4,41.4,30.03,SSW,203,4.9,4.9,55,0.00,,,0.00,WUHU216HW,2013-04-20 18:28:00,
2013-04-20 11:33:00,57.4,41.4,30.03,SSW,203,4.9,4.9,55,0.00,,,0.00,WUHU216HW,2013-04-20 18:33:00,
2013-04-20 11:58:00,59.8,42.1,30.02,SSW,203,9.4,9.4,52,0.00,,,0.00,WUHU216HW,2013-04-20 18:58:00,
2013-04-20 12:03:00,59.8,42.1,30.02,SSW,203,9.4,9.4,52,0.00,,,0.00,WUHU216HW,2013-04-20 19:03:00,
2013-04-20 12:28:00,61.6,42.2,30.01,SSW,203,4.9,4.9,49,0.00,,,0.00,WUHU216HW,2013-04-20 19:28:00,
2013-04-20 12:33:00,61.6,42.2,30.01,SSW,203,4.9,4.9,49,0.00,,,0.00,WUHU216HW,2013-04-20 19:33:00,
2013-04-20 12:58:00,60.3,39.3,30.00,South,180,6.7,6.7,46,0.00,,,0.00,WUHU216HW,2013-04-20 19:58:00,
2013-04-20 13:03:00,60.3,39.3,30.00,South,180,6.7,6.7,46,0.00,,,0.00,WUHU216HW,2013-04-20 20:03:00,
2013-04-20 13:28:00,60.1,39.2,29.99,SW,225,4.3,4.3,46,0.00,,,0.00,WUHU216HW,2013-04-20 20:28:00,
2013-04-20 13:33:00,60.1,39.2,29.99,SW,225,4.3,4.3,46,0.00,,,0.00,WUHU216HW,2013-04-20 20:33:00,
2013-04-20 13:58:00,60.7,37.9,29.98,SSW,203,6.9,6.9,43,0.00,,,0.00,WUHU216HW,2013-04-20 20:58:00,
2013-04-20 14:03:00,60.7,37.9,29.98,SSW,203,6.9,6.9,43,0.00,,,0.00,WUHU216HW,2013-04-20 21:03:00,
2013-04-20 14:28:00,61.9,38.5,29.97,SW,225,11.4,11.4,42,0.00,,,0.00,WUHU216HW,2013-04-20 21:28:00,
2013-04-20 14:33:00,61.9,38.5,29.97,SW,225,11.4,11.4,42,0.00,,,0.00,WUHU216HW,2013-04-20 21:33:00,
2013-04-20 14:58:00,61.0,37.7,29.96,SSW,203,6.9,6.9,42,0.00,,,0.00,WUHU216HW,2013-04-20 21:58:00,
2013-04-20 15:03:00,61.0,37.7,29.96,SSW,203,6.9,6.9,42,0.00,,,0.00,WUHU216HW,2013-04-20 22:03:00,
2013-04-20 15:28:00,61.6,37.0,29.95,South,180,12.8,12.8,40,0.00,,,0.00,WUHU216HW,2013-04-20 22:28:00,
2013-04-20 15:33:00,61.6,37.0,29.95,South,180,12.8,12.8,40,0.00,,,0.00,WUHU216HW,2013-04-20 22:33:00,
2013-04-20 15:58:00,61.4,35.4,29.95,SSW,203,12.8,12.8,38,0.00,,,0.00,WUHU216HW,2013-04-20 22:58:00,
2013-04-20 16:03:00,61.4,35.4,29.95,SSW,203,12.8,12.8,38,0.00,,,0.00,WUHU216HW,2013-04-20 23:03:00,
2013-04-20 16:28:00,61.6,35.6,29.95,WSW,248,13.0,13.0,38,0.00,,,0.00,WUHU216HW,2013-04-20 23:28:00,
2013-04-20 16:33:00,61.6,35.6,29.95,WSW,248,13.0,13.0,38,0.00,,,0.00,WUHU216HW,2013-04-20 23:33:00,
2013-04-20 16:58:00,62.5,35.6,29.94,SW,225,8.9,8.9,37,0.00,,,0.00,WUHU216HW,2013-04-20 23:58:00,
2013-04-20 17:03:00,62.5,35.6,29.94,SSE,158,13.4,13.4,37,0.00,,,0.00,WUHU216HW,2013-04-21 00:03:00,
2013-04-20 17:08:00,62.5,35.6,29.94,SSE,158,13.4,13.4,37,0.00,,,0.00,WUHU216HW,2013-04-21 00:08:00,
2013-04-20 17:28:00,61.7,35.0,29.94,WSW,248,6.9,6.9,37,0.00,,,0.00,WUHU216HW,2013-04-21 00:28:00,
2013-04-20 17:33:00,61.7,35.0,29.94,WSW,248,6.9,6.9,37,0.00,,,0.00,WUHU216HW,2013-04-21 00:33:00,
2013-04-20 17:58:00,61.7,32.9,29.94,SSW,203,6.3,6.3,34,0.00,,,0.00,WUHU216HW,2013-04-21 00:58:00,
2013-04-20 18:03:00,61.7,32.9,29.94,SSW,203,6.3,6.3,34,0.00,,,0.00,WUHU216HW,2013-04-21 01:03:00,
2013-04-20 18:08:00,61.7,32.9,29.94,SSW,203,6.3,6.3,34,0.00,,,0.00,WUHU216HW,2013-04-21 01:08:00,
2013-04-20 18:28:00,61.0,33.0,29.94,North,0,6.3,6.3,35,0.00,,,0.00,WUHU216HW,2013-04-21 01:28:00,
2013-04-20 18:33:00,61.0,33.0,29.94,North,0,6.3,6.3,35,0.00,,,0.00,WUHU216HW,2013-04-21 01:33:00,
2013-04-20 18:58:00,60.1,32.9,29.94,WSW,248,3.4,3.4,36,0.00,,,0.00,WUHU216HW,2013-04-21 01:58:00,
2013-04-20 19:03:00,60.1,32.9,29.94,WSW,248,4.7,4.7,36,0.00,,,0.00,WUHU216HW,2013-04-21 02:03:00,
2013-04-20 19:08:00,60.1,32.9,29.94,WSW,248,4.7,4.7,36,0.00,,,0.00,WUHU216HW,2013-04-21 02:08:00,
2013-04-20 19:28:00,58.9,33.2,29.94,SW,225,7.4,7.4,38,0.00,,,0.00,WUHU216HW,2013-04-21 02:28:00,
2013-04-20 19:33:00,58.9,33.2,29.94,SW,225,7.4,7.4,38,0.00,,,0.00,WUHU216HW,2013-04-21 02:33:00,
2013-04-20 19:58:00,57.1,32.9,29.95,SSE,158,4.0,4.0,40,0.00,,,0.00,WUHU216HW,2013-04-21 02:58:00,
2013-04-20 20:03:00,57.1,32.9,29.95,SSW,203,8.5,8.5,40,0.00,,,0.00,WUHU216HW,2013-04-21 03:03:00,
2013-04-20 20:08:00,57.1,32.9,29.95,SSW,203,8.5,8.5,40,0.00,,,0.00,WUHU216HW,2013-04-21 03:08:00,
2013-04-20 20:28:00,55.6,33.3,29.96,SSW,203,6.5,6.5,43,0.00,,,0.00,WUHU216HW,2013-04-21 03:28:00,
2013-04-20 20:33:00,55.6,33.3,29.96,SSW,203,6.5,6.5,43,0.00,,,0.00,WUHU216HW,2013-04-21 03:33:00,
2013-04-20 20:58:00,54.5,33.0,29.97,SSW,203,3.8,3.8,44,0.00,,,0.00,WUHU216HW,2013-04-21 03:58:00,
2013-04-20 21:01:00,54.5,33.0,29.97,SSW,203,3.8,3.8,44,0.00,,,0.00,WUHU216HW,2013-04-21 04:01:00,
2013-04-20 21:06:00,54.5,33.0,29.97,SSW,203,3.8,3.8,44,0.00,,,0.00,WUHU216HW,2013-04-21 04:06:00,
2013-04-20 21:28:00,53.5,33.0,29.99,WSW,248,4.0,4.0,46,0.00,,,0.00,WUHU216HW,2013-04-21 04:28:00,
2013-04-20 21:33:00,53.5,33.0,29.99,WSW,248,4.0,4.0,46,0.00,,,0.00,WUHU216HW,2013-04-21 04:33:00,
2013-04-20 21:58:00,52.2,32.5,30.00,NNE,23,2.0,2.0,47,0.00,,,0.00,WUHU216HW,2013-04-21 04:58:00,
2013-04-20 22:03:00,52.2,32.5,30.00,NNE,23,2.0,2.0,47,0.00,,,0.00,WUHU216HW,2013-04-21 05:03:00,
2013-04-20 22:28:00,50.6,33.1,30.00,SW,225,1.3,1.3,51,0.00,,,0.00,WUHU216HW,2013-04-21 05:28:00,
2013-04-20 22:33:00,50.6,33.1,30.00,SW,225,1.3,1.3,51,0.00,,,0.00,WUHU216HW,2013-04-21 05:33:00,
2013-04-20 22:58:00,49.0,32.9,30.00,West,270,0.0,0.0,54,0.00,,,0.00,WUHU216HW,2013-04-21 05:58:00,
2013-04-20 23:03:00,49.0,32.9,30.00,West,270,0.0,0.0,54,0.00,,,0.00,WUHU216HW,2013-04-21 06:03:00,
2013-04-20 23:28:00,46.8,32.3,30.01,NNE,23,0.0,0.0,57,0.00,,,0.00,WUHU216HW,2013-04-21 06:28:00,
2013-04-20 23:33:00,46.8,32.3,30.01,NNE,23,0.0,0.0,57,0.00,,,0.00,WUHU216HW,2013-04-21 06:33:00,
2013-04-20 23:58:00,44.8,32.2,30.02,NE,45,1.1,1.1,61,0.00,,,0.00,WUHU216HW,2013-04-21 06:58:00,